Change the Weather History Date:

Monday, July 15, 2013

  Actual Average (KMTJ) Record (KMTJ)
Temperature  
Mean Temperature 80 °F 74 °F  
Max Temperature 95 °F 90 °F 98 °F (2005)
Min Temperature 64 °F 58 °F 52 °F (1997)
Degree Days  
Heating Degree Days 0 0  
Month to date heating degree days 0  
Since 1 June heating degree days 39  
Since 1 July heating degree days 0  
Cooling Degree Days 14 9  
Month to date cooling degree days 127  
Year to date cooling degree days 279  
Since 1 June cooling degree days 262  
Growing Degree Days 30 (Base 50)    
Moisture  
Dew Point 53 °F    
Average Humidity 45    
Maximum Humidity 70    
Minimum Humidity 17    
Precipitation  
Precipitation 0.00 in 0.02 in 0.18 in (2001)
Month to date precipitation 0.37  
Year to date precipitation 5.44  
Sea Level Pressure  
Sea Level Pressure 30.09 in    
Wind  
Wind Speed 5 mph (ENE)    
Max Wind Speed 20 mph    
Max Gust Speed 28 mph    
Visibility 10 miles    
Events Rain , Thunderstorm    
T = Trace of Precipitation, MM = Missing Value Source: NWS Daily Summary

Daily Weather History Graph

Daily Weather History Graph

Search for Another Location

Airport or City:

Trip Planner

Search our weather history database for the weather conditions in past years. The results will help you decide how hot, cold, wet, or windy it might be!

Date:

Astronomy

Jul. 15, 2013 Rise Set
Actual Time 5:59 AM MDT 8:36 PM MDT
Civil Twilight 5:28 AM MDT 9:07 PM MDT
Nautical Twilight 4:50 AM MDT 9:45 PM MDT
Astronomical Twilight 4:06 AM MDT 10:29 PM MDT
Moon 1:17 PM MDT (7/15) No Moon Set
Length of Visible Light 15h 38m
Length of Day
14h 36m
Waxing Crescent, 46% of the Moon is Illuminated
Jul 15
Waxing Crescent
Jul 15
First Quarter
Jul 22
Full
Jul 29
Last Quarter
Aug 6
New

Hourly Weather History & Observations

Time (MDT) Temp. Heat Index Dew Point Humidity Pressure Visibility Wind Dir Wind Speed Gust Speed Precip Events Conditions
12:15 AM 74.7 °F - 52.9 °F 46% 30.12 in 10.0 mi NNW 6.9 mph - N/A   Clear
12:35 AM 75.0 °F - 52.2 °F 45% 30.12 in 10.0 mi Calm Calm - N/A   Clear
12:55 AM 72.1 °F - 55.0 °F 55% 30.13 in 10.0 mi NNE 5.8 mph - N/A   Clear
1:15 AM 71.2 °F - 55.2 °F 57% 30.12 in 10.0 mi NNE 8.1 mph - N/A   Clear
1:35 AM 72.0 °F - 54.1 °F 53% 30.12 in 10.0 mi NNE 10.4 mph - N/A   Clear
1:55 AM 73.6 °F - 51.8 °F 46% 30.12 in 10.0 mi NNE 10.4 mph - N/A   Clear
2:15 AM 74.3 °F - 51.1 °F 44% 30.12 in 10.0 mi NNE 8.1 mph - N/A   Clear
2:35 AM 72.9 °F - 52.0 °F 48% 30.12 in 10.0 mi NNE 6.9 mph - N/A   Clear
2:55 AM 71.1 °F - 52.9 °F 53% 30.12 in 10.0 mi NE 4.6 mph - N/A   Clear
3:15 AM 70.5 °F - 52.7 °F 53% 30.12 in 10.0 mi North 6.9 mph - N/A   Clear
3:35 AM 67.5 °F - 53.6 °F 61% 30.12 in 10.0 mi South 3.5 mph - N/A   Clear
3:55 AM 66.9 °F - 53.8 °F 63% 30.12 in 10.0 mi Calm Calm - N/A   Clear
4:15 AM 66.2 °F - 54.0 °F 65% 30.12 in 10.0 mi Calm Calm - N/A   Clear
4:35 AM 65.3 °F - 54.3 °F 68% 30.12 in 10.0 mi Calm Calm - N/A   Clear
4:55 AM 66.2 °F - 54.1 °F 65% 30.12 in 10.0 mi NE 5.8 mph - N/A   Clear
5:15 AM 67.1 °F - 51.6 °F 57% 30.12 in 10.0 mi NNE 5.8 mph - N/A   Clear
5:35 AM 65.7 °F - 52.2 °F 62% 30.12 in 10.0 mi NNE 3.5 mph - N/A   Clear
5:55 AM 66.7 °F - 52.3 °F 60% 30.13 in 10.0 mi Calm Calm - N/A   Clear
6:15 AM 64.6 °F - 52.7 °F 65% 30.13 in 10.0 mi Calm Calm - N/A   Clear
6:35 AM 64.9 °F - 52.3 °F 64% 30.13 in 10.0 mi ENE 5.8 mph - N/A   Clear
6:55 AM 68.0 °F - 51.8 °F 56% 30.14 in 10.0 mi NE 5.8 mph - N/A   Clear
7:15 AM 68.5 °F - 52.2 °F 56% 30.15 in 10.0 mi NE 3.5 mph - N/A   Clear
7:35 AM 70.5 °F - 51.8 °F 51% 30.16 in 10.0 mi East 5.8 mph - N/A   Clear
7:55 AM 71.6 °F - 51.6 °F 49% 30.16 in 10.0 mi ENE 3.5 mph - N/A   Clear
8:15 AM 72.9 °F - 51.8 °F 47% 30.16 in 10.0 mi Calm Calm - N/A   Clear
8:35 AM 74.3 °F - 52.3 °F 46% 30.16 in 10.0 mi Calm Calm - N/A   Clear
8:55 AM 75.2 °F - 51.8 °F 44% 30.15 in 10.0 mi Calm Calm - N/A   Clear
9:15 AM 77.4 °F - 51.3 °F 40% 30.15 in 10.0 mi Calm Calm - N/A   Clear
9:35 AM 78.6 °F - 51.1 °F 38% 30.15 in 10.0 mi Calm Calm - N/A   Clear
9:55 AM 79.2 °F - 51.6 °F 38% 30.13 in 10.0 mi Calm Calm - N/A   Clear
10:15 AM 81.1 °F - 50.9 °F 35% 30.14 in 10.0 mi Calm Calm - N/A   Clear
10:35 AM 82.6 °F - 50.0 °F 32% 30.13 in 10.0 mi ENE 3.5 mph - N/A   Clear
10:55 AM 84.4 °F - 48.6 °F 29% 30.12 in 7.0 mi Calm Calm - N/A   Clear
11:15 AM 86.0 °F - 48.0 °F 27% 30.12 in 10.0 mi ESE 4.6 mph - N/A   Clear
11:35 AM 87.1 °F - 48.0 °F 26% 30.11 in 10.0 mi Calm Calm - N/A   Clear
11:55 AM 89.1 °F - 48.6 °F 25% 30.10 in 10.0 mi SE 5.8 mph - N/A   Clear
12:15 PM 88.7 °F - 48.0 °F 24% 30.09 in 10.0 mi East 3.5 mph - N/A   Clear
12:35 PM 89.6 °F - 48.7 °F 24% 30.08 in 10.0 mi South 6.9 mph - N/A   Clear
12:55 PM 90.9 °F - 48.6 °F 23% 30.07 in 10.0 mi South 5.8 mph - N/A   Clear
1:15 PM 90.7 °F - 46.9 °F 22% 30.05 in 10.0 mi SSE 3.5 mph - N/A   Clear
1:35 PM 92.1 °F - 46.4 °F 21% 30.04 in 10.0 mi South 6.9 mph - N/A   Clear
1:55 PM 93.9 °F - 46.8 °F 20% 30.02 in 10.0 mi SSE 5.8 mph - N/A   Clear
2:15 PM 93.4 °F - 46.2 °F 20% 30.01 in 7.0 mi SW 8.1 mph - N/A   Clear
2:35 PM 93.7 °F - 46.0 °F 19% 30.00 in 10.0 mi South 4.6 mph 16.1 mph N/A   Clear
2:55 PM 95.0 °F - 45.5 °F 18% 29.98 in 10.0 mi SE 9.2 mph - N/A   Clear
3:15 PM 95.9 °F - 44.8 °F 17% 29.97 in 10.0 mi SSE 6.9 mph - N/A   Clear
3:35 PM 95.9 °F - 45.7 °F 18% 29.97 in 10.0 mi SW 10.4 mph - N/A Thunderstorm Clear
3:55 PM 95.0 °F - 45.9 °F 18% 29.96 in 10.0 mi SSW 8.1 mph - N/A Thunderstorm Thunderstorm
4:15 PM 90.5 °F - 48.6 °F 24% 29.98 in 10.0 mi NE 19.6 mph 27.6 mph N/A   Mostly Cloudy
4:35 PM 83.1 °F 83.0 °F 59.0 °F 44% 29.97 in 10.0 mi WNW 11.5 mph - N/A Rain , Thunderstorm Light Thunderstorms and Rain
4:55 PM 84.0 °F 83.2 °F 56.7 °F 39% 29.97 in 10.0 mi West 6.9 mph 16.1 mph N/A Rain Light Rain
5:15 PM 84.2 °F 83.8 °F 59.0 °F 42% 29.96 in 10.0 mi North 12.7 mph 19.6 mph N/A Thunderstorm Mostly Cloudy
5:35 PM 86.0 °F - 48.9 °F 28% 29.96 in 10.0 mi West 11.5 mph 17.3 mph N/A   Light Drizzle
5:55 PM 84.2 °F 82.8 °F 53.6 °F 35% 29.97 in 10.0 mi North 5.8 mph - N/A Thunderstorm Mostly Cloudy
6:15 PM 83.3 °F 82.0 °F 53.1 °F 35% 29.99 in 10.0 mi ENE 19.6 mph 24.2 mph N/A   Mostly Cloudy
6:35 PM 81.0 °F 80.6 °F 54.7 °F 40% 29.99 in 10.0 mi East 9.2 mph 16.1 mph N/A Rain Light Rain
6:55 PM 79.9 °F - 56.7 °F 45% 30.00 in 10.0 mi East 3.5 mph - N/A Thunderstorm Mostly Cloudy
7:15 PM 75.7 °F - 59.2 °F 56% 30.03 in 10.0 mi NNE 6.9 mph - N/A Rain Light Rain
7:35 PM 77.0 °F - 58.5 °F 53% 30.06 in 10.0 mi NE 11.5 mph - N/A   Overcast
7:55 PM 75.9 °F - 59.4 °F 56% 30.09 in 10.0 mi Calm Calm - N/A Rain Light Rain
8:15 PM 76.5 °F - 58.1 °F 53% 30.08 in 10.0 mi ESE 8.1 mph - N/A Rain Light Rain
8:35 PM 73.8 °F - 63.1 °F 69% 30.08 in 10.0 mi West 6.9 mph - N/A Rain Light Rain
8:55 PM 74.3 °F - 58.8 °F 58% 30.08 in 10.0 mi Calm Calm - N/A   Scattered Clouds
9:15 PM 74.8 °F - 59.2 °F 58% 30.08 in 10.0 mi East 3.5 mph - N/A   Clear
9:35 PM 73.8 °F - 59.5 °F 61% 30.09 in 10.0 mi East 9.2 mph - N/A   Clear
9:55 PM 73.4 °F - 59.2 °F 61% 30.10 in 10.0 mi East 5.8 mph - N/A   Clear
10:15 PM 73.8 °F - 57.2 °F 56% 30.11 in 10.0 mi Calm Calm - N/A   Clear
10:35 PM 72.3 °F - 59.2 °F 63% 30.11 in 10.0 mi East 4.6 mph - N/A   Clear
10:55 PM 71.1 °F - 61.0 °F 70% 30.12 in 10.0 mi NW 3.5 mph - N/A   Clear
11:15 PM 70.9 °F - 60.4 °F 69% 30.13 in 10.0 mi West 4.6 mph - N/A   Clear
11:35 PM 70.7 °F - 60.6 °F 70% 30.13 in 10.0 mi West 8.1 mph - N/A   Clear
11:55 PM 70.7 °F - 60.6 °F 70% 30.13 in 10.0 mi West 6.9 mph - N/A   Clear